Location: *
(49.5667°N, 1.3667°W)
Time: 14:22:26
(UTC+00:00)

USA 234 - Pass Details

Date: 20 September 2019
Orbit: 1103 x 1105 km, 123.0° (Epoch: 06 October)

Event Time Altitude Azimuth Distance (km) Brightness Sun altitude
Rises 18:44:39 0° 60° (ENE) 3,927 5.7 -6.6°
Reaches altitude 10° 18:47:09 10° 58° (ENE) 2,968 5.1 -7.0°
Maximum altitude 18:53:36 62° 340° (NNW) 1,231 3.7 -8.1°
Drops below altitude 10° 19:00:01 10° 261° (W) 2,962 6.8 -9.1°
Sets 19:02:31 0° 258° (WSW) 3,919 7.5 -9.5°
